User: anonymous   Login
Location: Unspecified
(0.0000°N, 0.0000°E)
Time: 19:01:33
(UTC+00:00)
Language:

STARLINK-1279 - Orbit

View from above orbital plane
View from above orbital plane
View from above satellite
View from above satellite

Ground track
Ground track

The orbit is defined by the following mean orbital elements,

1 45360U          26145.12095983 +.00000000 +00000-0 +52530-3 0 00004
2 45360  53.0357  83.3079 0008780  65.8479 294.3456 15.72382251    04
Epoch (UTC): 25 May 2026 02:54:10
Eccentricity: 0.0008780
inclination: 53.0357°
perigee height: 346 km
apogee height: 358 km
right ascension of ascending node: 83.3079°
argument of perigee: 65.8479°
revolutions per day: 15.72382251
mean anomaly at epoch: 294.3456°

The dashed part of the orbit path shows where the satellite is in the earth's shadow,  

DLR